EW8549 Weather Reports


Display with metric or nautical units.
time (UTC)temp
F
wind
direction
speed
MPH
gust
MPH
rain 1hr
in
rain 24hr
in
rain mn
in
humidity
%
barometer
mb
20260502220050 69 295 0.0 13.0 0.00 0.00 0.00 38 1014.2
20260502214556 69 299 0.0 10.0 0.00 0.00 0.00 38 1014.2
20260502213049 69 299 0.0 11.0 0.00 0.00 0.00 41 1014.3
20260502211547 67 322 0.0 3.0 0.00 0.00 0.00 40 1014.5
20260502210053 69 300 1.0 14.0 0.00 0.00 0.00 37 1014.4
20260502204552 69 335 4.0 13.0 0.00 0.00 0.00 34 1014.5
20260502203049 69 314 0.0 1.0 0.00 0.00 0.00 38 1014.8
20260502201544 69 309 0.0 3.0 0.00 0.00 0.00 38 1014.9
20260502200049 69 301 1.0 8.0 0.00 0.00 0.00 38 1014.9
20260502194544 69 3 0.0 3.0 0.00 0.00 0.00 36 1015.1
20260502193045 68 26 0.0 6.0 0.00 0.00 0.00 36 1015.2
20260502191543 69 317 0.0 9.0 0.00 0.00 0.00 41 1015.3
20260502190045 69 301 4.0 11.0 0.00 0.00 0.00 39 1015.3
20260502184540 68 345 0.0 1.0 0.00 0.00 0.00 39 1015.5
20260502183039 68 302 0.0 15.0 0.00 0.00 0.00 43 1015.5
20260502181543 68 11 0.0 0.0 0.00 0.00 0.00 39 1015.7
20260502163025 66 309 0.0 7.0 0.00 0.00 0.00 42 1016.5
20260502161512 65 303 0.0 9.0 0.00 0.00 0.00 44 1016.7
20260502151631 63 20 0.0 2.0 0.00 0.00 0.00 52 1016.6
20260502150103 62 75 0.0 7.0 0.00 0.00 0.00 53 1016.5
20260502123046 53 356 0.0 0.0 0.00 0.00 0.00 60 1015.1
20260502121535 53 313 0.0 0.0 0.00 0.00 0.00 61 1014.9
20260502114534 52 310 0.0 0.0 0.00 0.00 0.00 58 1014.6
20260502113032 52 309 0.0 0.0 0.00 0.00 0.00 60 1014.5
20260502111532 52 310 0.0 0.0 0.00 0.00 0.00 59 1014.0
20260502110030 52 310 0.0 0.0 0.00 0.00 0.00 60 1013.9
20260502104533 52 309 0.0 0.0 0.00 0.00 0.00 63 1013.6
20260502103029 52 310 0.0 0.0 0.00 0.00 0.00 65 1013.7
20260502101527 53 309 0.0 0.0 0.00 0.00 0.00 65 1013.6
20260502091520 54 56 0.0 0.0 0.00 0.00 0.00 64 1013.4
20260502071508 56 80 0.0 0.0 0.00 0.00 0.00 62 1013.4
20260502070007 56 58 0.0 0.0 0.00 0.00 0.00 64 1013.4
20260502064505 57 326 0.0 0.0 0.00 0.00 0.00 65 1013.5
20260502063003 57 304 0.0 0.0 0.00 0.00 0.00 64 1013.7
20260502061501 57 345 0.0 0.0 0.00 0.00 0.00 64 1014.0
20260502060059 58 54 0.0 0.0 0.00 0.00 0.00 63 1014.4
20260502054557 58 81 0.0 0.0 0.00 0.00 0.00 64 1014.6
20260502053104 58 25 0.0 0.0 0.00 0.00 0.00 63 1014.5
20260502051552 58 318 0.0 2.0 0.00 0.00 0.00 62 1014.2
20260502050049 58 354 0.0 0.0 0.00 0.00 0.00 59 1013.8
20260502044546 59 340 0.0 0.0 0.00 0.00 0.00 58 1013.5
20260502043042 59 319 0.0 3.0 0.00 0.00 0.00 55 1013.3
20260502041536 58 347 0.0 2.0 0.00 0.00 0.00 41 1013.1
20260502040037 58 306 0.0 0.0 0.00 0.00 0.00 23 1013.2
20260502034530 57 322 0.0 1.0 0.00 0.00 0.00 1 1012.9
20260502033026 58 319 0.0 0.0 0.00 0.00 0.00 1 1013.0
20260502031519 59 319 0.0 0.0 0.00 0.00 0.00 1 1012.9
20260502030015 58 309 0.0 0.0 0.00 0.00 0.00 1 1013.1
20260502024510 59 81 0.0 0.0 0.00 0.00 0.00 1 1013.1
20260502023006 59 81 0.0 0.0 0.00 0.00 0.00 1 1012.6
20260502021500 59 81 0.0 0.0 0.00 0.00 0.00 1 1012.9
20260502020057 59 81 0.0 0.0 0.00 0.00 0.00 1 1013.1
20260502014553 59 81 0.0 0.0 0.00 0.00 0.00 1 1013.2
20260502013050 59 81 0.0 0.0 0.00 0.00 0.00 1 1013.0
20260502011544 59 81 0.0 0.0 0.00 0.00 0.00 1 1012.6
20260502010040 59 81 0.0 0.0 0.00 0.00 0.00 1 1012.5
20260502004536 59 81 0.0 0.0 0.00 0.00 0.00 1 1012.6
20260502003031 59 81 0.0 0.0 0.00 0.00 0.00 1 1012.5
20260502001526 59 81 0.0 0.0 0.00 0.00 0.00 1 1012.3
20260502000022 60 81 0.0 0.0 0.00 0.00 0.00 2 1012.4
20260501234517 61 81 0.0 0.0 0.00 0.00 0.00 14 1012.0
20260501233013 62 81 0.0 0.0 0.00 0.00 0.00 51 1011.7
20260501231508 63 81 0.0 0.0 0.00 0.00 0.00 48 1011.5
20260501230009 63 81 0.0 0.0 0.00 0.00 0.00 59 1011.8
20260501224505 62 81 0.0 0.0 0.00 0.00 0.00 63 1011.7
20260501223003 63 81 0.0 0.0 0.00 0.00 0.00 63 1011.5
20260501221600 63 16 0.0 0.0 0.00 0.00 0.00 63 1011.8